Location: Byszew
(52.1813°N, 19.2693°E)
Time: 14:47:29
(UTC+00:00)

Cosmos 2237 - Pass Details

Date: 03 March 2021
Orbit: 845 x 857 km, 70.9° (Epoch: 12 April)

Event Time Altitude Azimuth Distance (km) Brightness Sun altitude
Rises 18:08:30 0° 206° (SSW) 3,412 7.6 -16.4°
Reaches altitude 10° 18:10:57 10° 206° (SSW) 2,481 6.8 -16.8°
Maximum altitude 18:16:40 84° 119° (ESE) 868 4.1 -17.6°
Drops below altitude 10° 18:22:26 10° 32° (NNE) 2,502 6.5 -18.5°
Sets 18:24:54 0° 32° (NNE) 3,442 7.2 -18.9°
